Showing default

IRIDIUM 33, 24946

Orbit data source: Space-Track

IRIDIUM 33, 24946 is a payload satellite owned by Iridium (US) in LEO that was launched on Sun, 14 Sep 1997 UTC via a PROTON-K/17S40 launch vehicle from the Tyuratam Missile And Space Complex (TTMTR). Payload-class satellites include a variety of spacecraft equipped with specific instruments for various scientific and technological missions. These include communications satellites like Starlink; space stations such as the ISS; scientific satellites like the Hubble; Earth observation satellites from companies like Planet Labs, Umbra, and HawkEye 360; GPS; miniature CubeSats for education and research; and military/defense satellites.

Loading next visibility...
Identifier
24946, 1997-051C
Orbit
LEO
Country
Flag of USUS
Related business
Manufacturer
MOTO/LMMS
Mission
Non-operational Commercial Communications
Bus & Motor
LM700, Unknown motor
Mass
662 kg wet, 556 kg dry
Launch date (UTC)
1997-09-14 (28 years ago)
Launch vehicle
PROTON-K/17S40
Launch site
Tyuratam Missile And Space Complex (TTMTR)
Object type
Payload
Rocket body
Debris
Shape & HBR
Box + 2 Pan, 4.2 m
Radar Cross Section
5.666 m², Large (>1 m²)

Expand to show TLE details & history
Last TLE update: 23 hours ago

TLE from 23 hours ago
0 IRIDIUM 33
1 24946U 97051C   25305.63565195  .00000509  00000-0  17197-3 0  9994
2 24946  86.3839  85.4753 0007704   5.0884 355.0389 14.34990093472456
Epoch: 2025-11-01T15:15Z
TLE epoch observation values (Epoch: 2025-11-01T15:15:20.328Z)
Latitude
-0.00003°
Longitude
175.4777°
Altitude
772.66 km
Speed
7.471 km/s
True Right ascension
05h 41m 54s
True Declination
0° 00' 00"
Sunlit
Object was in full shadow at epoch
Visualization orbit readout
Latitude
Unknown
Longitude
Unknown
Altitude
Unknown
Speed
Unknown
Apparent Right ascension
Unknown
Apparent Declination
Unknown
Sunlit
N/A
Visualization observer readout
Local Sidereal Time
09:47:01
Azimuth
Unknown
Elevation
Unknown
Doppler factor
Unknown
Orbital elements
Apogee altitude
777.571 km
Perigee altitude
766.554 km
Semi-major axis
7,150.2 km
Eccentricity
0.00077
Inclination
86.3839°
RAAN
85.4753°
Arg. of periapsis
5.0884°
True anomaly
355.03126°
Mean anomaly
355.0389°
Eccentric anomaly
355.03508°
Mean motion
3.58976 °/min
Orbital period
100.29 mins
BSTAR
0.00017197
Loading maneuver chart data...
Computing Atmospheric mass density...

Documentation

Showing up to 5 results
|